Погода Большерецкий

Погода Большерецкий : погода сейчас, прогноз погоды и архив. Всё, что Вы хотите узнать о погоде Большерецкий!

Поиск расширенной информации на нашем сайте:

Другие новости

Новости СМИ2

Главная страница сайта

Новости сайта

03.07.2017

Напоминаем, что на нашем специализированном сайте Метеоцентр.Азия вы можете получить высокодетализированные автоматические прогнозы погоды по пунктам России, СНГ и мира в авиационном формате (включающие направление и скорость ветра, видимость, явления погоды, количество и форму облачности, нижнюю и верхнюю границу облачности).

Рекомендуем: Описание курсы английского языка по skype у нас на сайте.

Погода Большерецкий - сегодня

Время (UTC), дата Ветер
(°,м/с) 
Видим.   Явления Облачность Т
(°С)
Тd
(°С)
f(%) Тe
(°С)
Pmin
(гПа)
dP
(гПа)
Po
(мм)
O2
(г/м3)
Тmin Tmax R s Состояние
почвы
15 16.09.17 150 (ЮВ) 10 км  слаб. ливневой дождь  10/10 600 м кучево-дожд. 
[Cb cap]
+8.2 +8 99 +7  1017.1  -0.7  760  296           
18 16.09.17 150 (ЮВ) 10 км  слаб. ливневой дождь  10/10 600 м кучево-дожд. 
[Cb cap]
+8 +7.9 99 +7  1016.6  -0.5  760  296           
03 17.09.17 150 (ЮВ) 2000 м  ливневой дождь  10/10 300 м кучево-дожд. 
[Cb cap]
+11.6 +11.2 97 +13  1018.2  0.1  761  292           
06 17.09.17 210 (ЮЗ) 20000 м  в посл. час ливневой дождь  9/9 600 м кучево-дожд. 
[Cb cap]
+12.3 +11.5 95 +16  1019.1  0.9  762  291           
12 17.09.17 160 (Ю) 20000 м  {туман}  10/10 600 м 
[Sc]
+9.7 +9.3 97 +10  1021.4  763  295           
15 17.09.17 140 (ЮВ) 20000 м    10/10 600 м 
[Sc]
+9.8 +9.2 96 +11  1022.2  0.8  764  296           
18 17.09.17 130 (ЮВ) 20000 м    10/10 600 м 
[Sc]
+9 +8.8 99 +10  1022.3  -0.1  764  296           
00 18.09.17 170 (Ю) 20000 м    8/8 600 м 
[Cu Sc]
+12.8 +8.4 75 +12  1022.5  -0.3  764  293           
03 18.09.17 200 (Ю) 20000 м    6/6 600 м 
[Cu Sc]
+13.6 +9.6 77 +13  1022  -0.5  764  291           
06 18.09.17 190 (Ю) 20000 м    10/10 300 м 
[St]
+11.2 +9.4 89 +11  1022  764  294           
12 18.09.17 150 (ЮВ) 10 км  слаб. морось  10/10 300 м 
[St]
+9.5 +9 97 +9  1021.6  -0.4  763  296           
15 18.09.17 140 (ЮВ) 10 км  слаб. морось  10/10 300 м 
[St]
+9.5 +9.1 97 +10  1020.5  -1.1  763  295           
18 18.09.17 110 (В) 20000 м  {морось}  10/10 300 м 
[St]
+9 +8.6 97 +10  1018.9  -1.6  761  296           
21 18.09.17 150 (ЮВ) 20000 м    10/10 300 м 
[St]
+8.7 +8.4 98 +10  1017.2  -1.6  760  295  +8.5    0.0     
00 19.09.17 170 (Ю) 20000 м    9/8 600 м средняя 
[Sc|Ac trans]
+11.5 +8.9 84 +11  1015.4  -1.8  759  292           
06 19.09.17 150 (ЮВ) 5-10{13}  20000 м  слаб. ливневой дождь  10/8 600 м кучево-дожд., средняя 
[Cb cap|Ac und]
+11.5 +8.3 81 +10  1011.9  -1.2  756  291           
09 19.09.17 140 (ЮВ) 7-11{14}  20000 м  {ливн. осадки}  9/6 600 м кучево-дожд., средняя 
[Cb cap|Ac trans]
+10.6 +7.5 81 +9  1011.7  -0.3  756  292    +13.8  0.0     
12 19.09.17 130 (ЮВ) 7-13{14}  20000 м  {ливн. осадки}  10/10 600 м 
[Sc]
+10.4 +5.8 73 +9  1011.1  -0.6  756  292           
18 19.09.17 120 (ЮВ) 8-14{14}  20000 м    9/9 600 м 
[Sc]
+11.4 +6.3 71 +10  1008.9  -1.2  754  291           
21 19.09.17 130 (ЮВ) 8-14{15}  20000 м    9/8 600 м средняя 
[Sc|Ac trans]
+12.9 +7.3 69 +11  1008  -0.9  753  289  +10.3         
00 20.09.17 130 (ЮВ) 9-17{18}  20000 м    9/9 600 м кучево-дожд. 
[Cb cap]
+14.5 +8.1 65 +13  1007.5  -0.5  753  287           
06 20.09.17 130 (ЮВ) 9-15{19}  20000 м    9/9 600 м кучево-дожд. 
[Cb cap]
+13.8 +7.8 67 +12  1006.5  -0.4  752  287           
09 20.09.17 130 (ЮВ) 6-12{15}  20000 м    10/10 600 м кучево-дожд. 
[Cb cap]
+13 +7.1 67 +12  1007.2  0.7  753  288    +14.8       
12 20.09.17 110 (В) 4{12}  10 км  слаб. ливневой дождь  10/10 600 м кучево-дожд. 
[Cb cap]
+10.1 +7 81 +9  1007  -0.2  753  291           
15 20.09.17 080 (В) 10 км  ливневой дождь  10/10 600 м кучево-дожд. 
[Cb cap]
+9.3 +8.3 93 +9  1007.1  0.2  753  292           
Время (UTC), дата Ветер
(°,м/с) 
Видим.   Явления Облачность Т
(°С)
Тd
(°С)
f(%) Тe
(°С)
Pmin
(гПа)
dP
(гПа)
Po
(мм)
O2
(г/м3)
Тmin Tmax R s Состояние
почвы

Для получения пояснительной информации подведите курсор к названию столбца.

ПОГОДА Большерецкий - архив

Всё, что Вы хотите узнать о погоде Большерецкий - удобно и подробно!

Выберите нужную дату (начиная с 1 января 2015* года) и нажмите кнопку "Найти".
Будут отображены архивные сводки погоды по пункту Большерецкий, начиная с указанной даты.


Отображать данные в формате CSV (для использования в таблицах Excel)


Внимание! Наш архив погоды предназначен исключительно для личного некоммерческого использования в познавательных целях. Если Вам необходимы официальные справки о состоянии погоды (для производственных, юридических, коммерческих и т.п. целей), обращайтесь в органы Росгидромета.

*Примечание: данная дата относится к архиву по метеостанциям СССР (Россия, СНГ, Балтия).
Архив по метеостанциям Зарубежной Европы и Азии (кроме Китая) хранится 10 дней, по другим регионам земного шара (Китай, Африка, Америка, Австралия, Океания) - 1 день.

Большерецкий - район местоположения метеостанции


Название, широта, долгота, высота метеостанции:
Большерецкий 52.9°ш. 156.6°д. 27 м над ур. моря [Российская Федерация]

Дополнительная информация

В oтличие oт бoльшинства пoгoдных сайтoв мы публикуем пoдрoбную метеoинфoрмацию в детальнoм прoфессиoнальнoм фoрмате.

Характеристики температуры и влажнoсти вoздуха измеряются на высoте 2 м в тени вдали oт зданий и деревьев.
Скoрoсть ветра измеряется на высoте 10 м (на урoвне рoста челoвека скoрoсть ветра ниже в 1.5-2 раза). Если метеoстанция нахoдится в гoрoде или в лесу, тo скoрoсть ветра занижена на 2-4 м/с пo сравнению с oткрытым местoм. Скoрoсть ветра над акватoриями крупных рек и oзёр, а также на вершинах хoлмoв на 2-5 м/с выше, чем в oбычных услoвиях.
Атмoсфернoе давление в разных тoчках местнoсти мoжет значительнo oтличаться oт давления на метеoстанции, в зависимoсти oт услoвий рельефа (при пoдъёме на 10 м давление пoнижается примернo на 1 мм рт.ст.).